When you browse on this site, cookies collect data to enhance your experience and personalize the content and advertising you see.
Visit our Privacy Policy to learn more. By continuing to use the site, you agree to this use of cookies and data.
  • In Deutschland
  • Länderverzeichnis
  • Für 7 Tage
  • Wassertemperatur
  • Wetterkarte
  • Widgets
  • user-avatar
    Anmelden

    Stündliche Wetter Winchester

    Heute, 22 September, Sonntag

    Zeit Temperatur Niederschläge Wind Luftdruck Luftfeuchtigkeit
    00:00 +19°C° 0 mm 5 m/S 748 mmHg 85%
    01:00 +19°C° 0.3 mm 5 m/S 747 mmHg 86%
    02:00 +19°C° 0.3 mm 5 m/S 747 mmHg 88%
    03:00 +18°C° 0.3 mm 4 m/S 746 mmHg 89%
    04:00 +18°C° 0 mm 4 m/S 746 mmHg 90%
    05:00 +18°C° 0 mm 4 m/S 746 mmHg 92%
    06:00 +18°C° 0 mm 4 m/S 746 mmHg 93%
    07:00 +18°C° 0.1 mm 3 m/S 746 mmHg 93%
    08:00 +18°C° 0.1 mm 3 m/S 746 mmHg 92%
    09:00 +18°C° 0.1 mm 3 m/S 747 mmHg 91%
    10:00 +18°C° 0.8 mm 4 m/S 747 mmHg 89%
    11:00 +18°C° 0.8 mm 4 m/S 747 mmHg 88%
    12:00 +18°C° 0.8 mm 4 m/S 747 mmHg 86%
    13:00 +17°C° 0.3 mm 5 m/S 747 mmHg 83%
    14:00 +17°C° 0.3 mm 5 m/S 747 mmHg 79%
    15:00 +19°C° 0.3 mm 6 m/S 747 mmHg 75%
    16:00 +17°C° 0 mm 5 m/S 747 mmHg 78%
    17:00 +17°C° 0 mm 4 m/S 747 mmHg 80%
    18:00 +16°C° 0 mm 3 m/S 747 mmHg 83%
    19:00 +14°C° 0 mm 3 m/S 747 mmHg 86%
    20:00 +14°C° 0 mm 3 m/S 748 mmHg 89%
    21:00 +13°C° 0 mm 3 m/S 748 mmHg 92%
    22:00 +13°C° 0 mm 3 m/S 749 mmHg 93%
    23:00 +13°C° 0 mm 4 m/S 749 mmHg 93%

    Morgen, 23 September, Montag

    Zeit Temperatur Niederschläge Wind Luftdruck Luftfeuchtigkeit
    00:00 +13°C° 0 mm 5 m/S 750 mmHg 93%
    01:00 +12°C° 0 mm 5 m/S 750 mmHg 93%
    02:00 +12°C° 0 mm 5 m/S 750 mmHg 92%
    03:00 +12°C° 0 mm 5 m/S 751 mmHg 91%
    04:00 +12°C° 0 mm 5 m/S 751 mmHg 92%
    05:00 +11°C° 0 mm 4 m/S 751 mmHg 92%
    06:00 +11°C° 0 mm 4 m/S 752 mmHg 92%
    07:00 +13°C° 0 mm 4 m/S 752 mmHg 86%
    08:00 +14°C° 0 mm 5 m/S 753 mmHg 80%
    09:00 +16°C° 0 mm 5 m/S 753 mmHg 74%
    10:00 +17°C° 0 mm 5 m/S 753 mmHg 70%
    11:00 +17°C° 0 mm 6 m/S 753 mmHg 67%
    12:00 +19°C° 0 mm 6 m/S 753 mmHg 63%
    13:00 +19°C° 0.1 mm 6 m/S 753 mmHg 67%
    14:00 +17°C° 0.1 mm 6 m/S 752 mmHg 71%
    15:00 +16°C° 0.1 mm 6 m/S 752 mmHg 75%
    16:00 +16°C° 1.2 mm 7 m/S 751 mmHg 81%
    17:00 +15°C° 1.2 mm 7 m/S 751 mmHg 86%
    18:00 +14°C° 1.2 mm 7 m/S 751 mmHg 92%
    19:00 +15°C° 1.2 mm 7 m/S 750 mmHg 93%
    20:00 +15°C° 1.2 mm 7 m/S 750 mmHg 93%
    21:00 +16°C° 1.2 mm 7 m/S 750 mmHg 94%
    22:00 +16°C° 0.2 mm 7 m/S 750 mmHg 94%
    23:00 +16°C° 0.2 mm 7 m/S 749 mmHg 93%

    übermorgen, 24 September, Dienstag

    Zeit Temperatur Niederschläge Wind Luftdruck Luftfeuchtigkeit
    00:00 +16°C° 0.2 mm 7 m/S 749 mmHg 93%
    01:00 +16°C° 0.2 mm 7 m/S 748 mmHg 93%
    02:00 +17°C° 0.2 mm 6 m/S 748 mmHg 94%
    03:00 +17°C° 0.2 mm 6 m/S 747 mmHg 94%
    04:00 +16°C° 0.9 mm 6 m/S 746 mmHg 93%
    05:00 +16°C° 0.9 mm 6 m/S 746 mmHg 93%
    06:00 +16°C° 0.9 mm 6 m/S 745 mmHg 93%
    07:00 +16°C° 3.6 mm 6 m/S 744 mmHg 92%
    08:00 +16°C° 3.6 mm 5 m/S 744 mmHg 91%
    09:00 +15°C° 3.6 mm 5 m/S 744 mmHg 89%
    10:00 +16°C° 0.4 mm 6 m/S 744 mmHg 85%
    11:00 +17°C° 0.4 mm 7 m/S 744 mmHg 80%
    12:00 +18°C° 0.4 mm 8 m/S 744 mmHg 75%
    13:00 +18°C° 0.5 mm 8 m/S 745 mmHg 75%
    14:00 +18°C° 0.5 mm 8 m/S 745 mmHg 75%
    15:00 +17°C° 0.5 mm 8 m/S 745 mmHg 75%
    16:00 +16°C° 0.5 mm 7 m/S 745 mmHg 80%
    17:00 +15°C° 0.5 mm 6 m/S 745 mmHg 85%
    18:00 +14°C° 0.5 mm 6 m/S 745 mmHg 89%
    19:00 +14°C° 0.1 mm 6 m/S 745 mmHg 89%
    20:00 +14°C° 0.1 mm 6 m/S 746 mmHg 88%
    21:00 +14°C° 0.1 mm 6 m/S 746 mmHg 88%
    22:00 +14°C° 0.2 mm 6 m/S 745 mmHg 88%
    23:00 +14°C° 0.2 mm 7 m/S 745 mmHg 89%

    25 September, Mittwoch

    Zeit Temperatur Niederschläge Wind Luftdruck Luftfeuchtigkeit
    00:00 +14°C° 0.2 mm 7 m/S 745 mmHg 90%
    01:00 +14°C° 0.7 mm 7 m/S 745 mmHg 89%
    02:00 +13°C° 0.7 mm 8 m/S 745 mmHg 89%
    03:00 +13°C° 0.7 mm 8 m/S 745 mmHg 88%
    04:00 +13°C° 0.5 mm 8 m/S 745 mmHg 89%
    05:00 +13°C° 0.5 mm 9 m/S 745 mmHg 89%
    06:00 +12°C° 0.5 mm 9 m/S 745 mmHg 90%
    07:00 +13°C° 0.1 mm 9 m/S 745 mmHg 88%
    08:00 +13°C° 0.1 mm 8 m/S 745 mmHg 87%
    09:00 +15°C° 0.1 mm 7 m/S 746 mmHg 85%
    10:00 +15°C° 0.1 mm 7 m/S 746 mmHg 84%
    11:00 +16°C° 0.1 mm 6 m/S 746 mmHg 84%
    12:00 +16°C° 0.1 mm 6 m/S 747 mmHg 83%
    13:00 +16°C° 0.1 mm 6 m/S 747 mmHg 83%
    14:00 +16°C° 0.1 mm 6 m/S 747 mmHg 83%
    15:00 +16°C° 0.1 mm 6 m/S 747 mmHg 83%
    16:00 +16°C° 0.1 mm 6 m/S 747 mmHg 86%
    17:00 +16°C° 0.1 mm 6 m/S 747 mmHg 89%
    18:00 +16°C° 0.1 mm 6 m/S 747 mmHg 92%
    19:00 +16°C° 0.5 mm 6 m/S 747 mmHg 93%
    20:00 +16°C° 0.5 mm 6 m/S 747 mmHg 94%
    21:00 +16°C° 0.5 mm 6 m/S 747 mmHg 95%
    22:00 +16°C° 0.5 mm 7 m/S 747 mmHg 93%
    23:00 +16°C° 0.5 mm 7 m/S 746 mmHg 92%

    26 September, Donnerstag

    Zeit Temperatur Niederschläge Wind Luftdruck Luftfeuchtigkeit
    00:00 +16°C° 0.5 mm 7 m/S 746 mmHg 90%
    01:00 +16°C° 0.1 mm 7 m/S 746 mmHg 90%
    02:00 +15°C° 0.1 mm 7 m/S 746 mmHg 89%
    03:00 +15°C° 0.1 mm 7 m/S 746 mmHg 89%
    04:00 +15°C° 0.5 mm 7 m/S 746 mmHg 90%
    05:00 +15°C° 0.5 mm 7 m/S 746 mmHg 92%
    06:00 +15°C° 0.5 mm 7 m/S 746 mmHg 93%
    07:00 +16°C° 1.5 mm 7 m/S 746 mmHg 93%
    08:00 +16°C° 1.5 mm 7 m/S 746 mmHg 92%
    09:00 +16°C° 1.5 mm 7 m/S 746 mmHg 91%
    10:00 +16°C° 0.2 mm 7 m/S 746 mmHg 85%
    11:00 +17°C° 0.2 mm 7 m/S 746 mmHg 78%
    12:00 +17°C° 0.2 mm 7 m/S 746 mmHg 72%
    13:00 +17°C° 0.1 mm 8 m/S 746 mmHg 71%
    14:00 +17°C° 0.1 mm 8 m/S 746 mmHg 69%
    15:00 +16°C° 0.1 mm 8 m/S 746 mmHg 68%
    16:00 +16°C° 0.1 mm 7 m/S 746 mmHg 72%
    17:00 +15°C° 0.1 mm 7 m/S 746 mmHg 76%
    18:00 +14°C° 0.1 mm 6 m/S 747 mmHg 81%
    19:00 +13°C° 0 mm 6 m/S 747 mmHg 82%
    20:00 +13°C° 0 mm 5 m/S 747 mmHg 84%
    21:00 +13°C° 0 mm 5 m/S 747 mmHg 85%
    22:00 +12°C° 0.1 mm 5 m/S 747 mmHg 86%
    23:00 +12°C° 0.1 mm 5 m/S 747 mmHg 86%

    27 September, Freitag

    Zeit Temperatur Niederschläge Wind Luftdruck Luftfeuchtigkeit
    00:00 +12°C° 0.1 mm 5 m/S 747 mmHg 87%
    01:00 +12°C° 0.1 mm 5 m/S 747 mmHg 87%
    02:00 +12°C° 0.1 mm 5 m/S 747 mmHg 87%
    03:00 +12°C° 0.1 mm 5 m/S 747 mmHg 88%
    04:00 +12°C° 0.2 mm 5 m/S 747 mmHg 87%
    05:00 +12°C° 0.2 mm 5 m/S 747 mmHg 86%
    06:00 +12°C° 0.2 mm 5 m/S 747 mmHg 85%
    07:00 +13°C° 0.1 mm 6 m/S 747 mmHg 82%
    08:00 +14°C° 0.1 mm 6 m/S 748 mmHg 78%
    09:00 +15°C° 0.1 mm 7 m/S 748 mmHg 75%
    10:00 +15°C° 0.2 mm 7 m/S 748 mmHg 72%
    11:00 +16°C° 0.2 mm 8 m/S 748 mmHg 69%
    12:00 +16°C° 0.2 mm 9 m/S 748 mmHg 66%
    13:00 +16°C° 0.2 mm 8 m/S 748 mmHg 67%
    14:00 +16°C° 0.2 mm 8 m/S 748 mmHg 68%
    15:00 +16°C° 0.2 mm 8 m/S 748 mmHg 69%
    16:00 +15°C° 0.1 mm 8 m/S 748 mmHg 73%
    17:00 +14°C° 0.1 mm 7 m/S 748 mmHg 77%
    18:00 +14°C° 0.1 mm 7 m/S 748 mmHg 82%
    19:00 +12°C° 0 mm 7 m/S 748 mmHg 82%
    20:00 +12°C° 0 mm 7 m/S 748 mmHg 83%
    21:00 +12°C° 0 mm 7 m/S 748 mmHg 83%
    22:00 +12°C° 0.3 mm 7 m/S 748 mmHg 84%
    23:00 +12°C° 0.3 mm 7 m/S 748 mmHg 85%
    Mehr zeigen